GFSSE_con_mlcape_000.txt.gz
CAPE
438 509 394 508 537 1161 1231 1558 1635 1642 1732 1736 1662 1406 1396 1447 1442 1372 1677 1982 1636 1747 1686 1731 1782 2017 2124 2287 2191 2082 1892 1788 1790 1841 2166 1695 1175 809 742 891 602 439 978
624 578 553 707 905 1374 1128 1486 1408 1594 1710 1740 1587 1599 1620 1542 1079 1211 1702 1902 1559 1709 1769 1886 2012 2049 2319 2346 2209 2103 2150 2122 2051 1847 1818 1586 1319 1010 1300 1098 543 771 974
642 656 811 1298 1442 1085 1301 1206 1244 1582 1805 1824 1845 1805 1636 1292 1275 1649 1765 1623 1564 1797 1867 1982 2018 2024 2041 2177 2187 2079 1929 1824 1819 1961 1155 1241 1119 1181 1445 1163 578 943 858
800 792 966 1102 1380 1688 1413 1528 1505 1783 1840 1886 1784 1589 1521 1557 1758 2007 1974 2039 2179 2199 2066 1974 2067 2161 1980 1935 1953 1672 1415 1787 1867 1087 1414 856 843 805 977 831 462 617 303
1088 1098 1216 1333 1797 2051 1976 1951 1843 1864 1877 1844 1724 1785 1670 1939 2114 2049 1966 1994 1995 2022 2176 2163 2056 1934 1886 1779 1731 1323 1097 1228 1264 1054 1022 817 926 491 1177 1016 416 915 420
1499 1580 900 1293 1946 2071 2132 1727 1775 1809 2001 2011 2112 1782 1761 1916 2108 2114 2124 2121 2095 2168 2106 2125 2009 1881 1733 1670 1498 1327 1326 1196 668 1436 1261 734 1194 952 1180 1106 383 777 560
1401 1669 1457 1420 1709 1735 1795 1767 2172 2060 1954 2054 1936 1858 1943 1987 2167 2136 2047 2058 2114 2145 2001 1950 1936 1766 1704 1682 1529 1151 1240 1262 1450 1415 1200 937 1110 1196 1068 1277 640 246 624
1329 1552 1693 1509 1803 2097 2191 1765 2016 2205 2126 2034 1866 1919 1961 2090 2120 2129 2110 2251 2252 2095 1952 1879 1779 1551 1465 1473 1556 1103 1176 1097 1388 1175 1384 1343 1102 1320 1172 784 1115 214 141
1274 1368 1574 1560 1715 2265 2350 2024 2108 2123 2137 2045 1900 1955 1976 2127 2140 2143 2242 2206 2092 1953 1982 1987 1803 1613 1589 1577 1412 1148 1156 1475 1536 1374 1273 1439 695 1636 1236 1070 1005 433 526
1226 1345 1408 1435 1481 1519 1477 1795 1922 2112 2043 1875 1969 1852 1831 2104 2174 1980 2163 1819 2194 2137 2259 2339 2260 1562 1589 1683 1451 1390 1487 1293 1330 1550 1244 1339 659 1456 1312 1285 750 897 322
1067 1279 1501 1672 1763 1749 1567 1629 1619 1584 1636 1641 1621 1732 1508 1302 1823 1747 1685 2055 2077 2168 2269 2284 2231 2245 1987 1346 1209 1317 1141 1241 1419 1326 1428 1103 650 1376 1589 1216 1016 921 675
1080 1119 1157 1304 1583 1756 1543 1676 1534 1377 1118 1100 1241 1687 1517 1734 1937 1926 1916 2186 2286 2322 2302 2286 1986 1689 1180 1296 1421 1018 1068 1145 1150 1353 1235 1191 877 1156 1618 1382 1359 567 1076
1023 1074 1233 1442 1616 1506 1408 1588 1495 1547 1465 1548 1887 2015 1855 1916 1912 1856 1544 1691 1667 1714 1360 1457 1411 1454 1078 1096 1050 976 777 999 786 1252 1094 1050 1024 900 1461 1299 1388 1220 429
941 1070 1322 1604 1799 1799 1630 1531 1499 1479 1570 1507 1615 1908 1850 1834 1665 1615 1477 1486 1479 1299 1299 1280 1311 1306 1338 1025 1162 1101 915 867 810 1048 1258 554 1110 941 1039 1610 1521 1039 823
989 1157 1297 1705 1829 1894 1928 1555 1424 1437 1352 1329 1450 1601 1796 1626 1546 1583 1552 1617 1242 1313 1576 1615 1520 1452 1390 909 855 921 743 734 839 896 1057 980 954 910 999 1540 1376 1080 594
850 963 1411 1712 1910 2029 1943 1905 1794 1703 1512 1506 1384 1414 1754 1875 1570 1410 1396 1392 1432 1326 1524 1574 1358 1498 1335 1201 928 905 740 689 821 943 870 1132 721 919 942 1201 1303 1099 805
1313 1310 1491 1900 1937 1970 2016 2040 2074 1683 1525 1403 1348 1490 1638 1798 1664 1754 1301 1322 1326 1555 1138 1265 1489 1481 1382 1224 1092 1019 979 826 847 1039 1107 821 955 844 975 1018 1227 1149 1092
1881 2033 2161 2193 1840 1997 2067 1909 1943 1768 1561 1283 1046 993 1342 1656 1868 1315 1191 1284 1315 1539 1146 1121 1183 1283 1390 1075 1071 996 837 718 749 886 898 791 730 525 993 979 1095 1108 926
1718 2071 2477 2424 2069 1821 1916 1933 1776 1709 1692 1599 1422 1364 1589 1688 1569 1311 1130 1087 968 1162 1122 912 1128 1177 1053 1068 987 812 807 718 670 535 522 642 799 706 530 1011 970 1144 1163
2347 2493 2523 2384 2402 2439 2221 2297 1967 1807 1675 1668 1693 1679 1725 1893 1632 1730 1449 1362 1436 1157 1023 1078 1021 1168 1053 980 886 597 511 559 531 468 431 561 645 571 593 468 1175 1046 1054
2109 2262 2461 2535 2589 2453 2306 2148 2097 2050 2031 1827 1827 1857 1970 1991 2033 2031 1476 1399 1583 1353 1395 1507 1678 1180 898 769 824 702 505 499 522 520 394 410 428 434 448 489 553 715 835
2174 2311 2490 2673 2748 2762 2396 2398 2155 1776 1486 1562 1934 1876 1648 1364 1365 1230 1164 946 937 916 1021 1297 1405 1170 726 696 708 587 243 311 305 473 429 294 349 377 315 431 551 688 619
2072 2440 2527 2699 2732 3089 2786 1921 1137 550 904 446 532 370 718 921 763 766 744 754 812 962 753 766 872 859 767 513 603 585 205 187 188 239 409 347 275 344 345 271 362 546 779
1965 2344 3127 3341 2967 2065 1142 597 578 24 79 174 161 134 319 282 457 462 566 546 770 730 768 657 728 839 691 660 495 554 505 230 189 228 242 314 365 306 330 319 249 341 699
2298 2620 2397 1792 1225 769 692 283 44 47 0 32 11 11 91 100 217 293 442 434 536 529 446 462 525 784 645 523 460 402 374 401 380 350 212 219 349 296 273 355 296 222 282
1886 1592 817 819 597 476 207 172 133 84 13 0 7 9 7 14 42 133 100 106 214 281 328 397 445 648 747 691 671 606 467 410 384 385 375 226 188 174 316 204 233 250 233

GFSSE_con_mlcape_003.txt.gz
CAPE
382 266 553 913 1234 1454 1631 1637 1673 1710 1673 1655 1469 1375 1495 1108 1074 1231 1233 1470 1608 1731 1820 1916 1999 2045 2176 2149 2116 1949 1863 1756 1766 2045 1652 1335 946 780 946 939 523 302 1066
605 444 657 993 1423 1559 1713 1620 1694 1647 1771 1593 1586 1368 1215 1031 1358 1750 1725 1728 1630 1570 1978 2031 2094 2184 2270 2165 1976 2093 2068 2044 1961 1606 1626 1545 1169 1412 1602 1018 602 820 988
518 538 628 1014 1229 1332 1663 1825 1859 1852 1811 1756 1621 1278 1156 1209 1244 1472 1660 1658 1867 1848 1979 2112 2140 2200 2314 2347 2290 2356 1805 1425 1462 1067 1086 1257 1237 1318 1503 909 837 1103 900
504 741 841 1022 934 854 1344 1751 1842 1834 1927 1915 1738 1469 1362 1280 1591 1892 1915 1986 2100 2010 1929 2058 2268 2230 2014 2019 1796 1865 1607 1224 973 716 838 1102 948 1253 1088 790 1276 798 626
867 1424 1190 1148 1178 1285 1629 1788 1921 1805 1833 1673 1675 1490 1444 1380 1331 2077 2107 2095 2126 2094 2101 2119 2077 2071 1873 1800 1409 1283 1594 1609 1166 1111 1270 1158 696 1163 1322 648 653 379 93
1182 1372 1260 1576 2117 2146 2072 1878 1712 1723 1730 1743 1730 1530 1670 1497 1914 1951 2051 2128 2162 2146 2133 2136 2012 1948 1807 1572 1567 1336 1470 1243 1039 1235 1426 843 1245 1453 1286 1014 646 856 194
1425 1291 1227 1518 2097 2192 2033 1827 1774 1901 1844 1899 1591 1584 1759 2106 2087 2000 2076 2112 2128 2083 2010 1967 1952 1870 1760 1747 1618 1387 1406 1190 1287 1723 1649 673 1493 1386 1116 977 310 1075 625
1394 1395 1225 1389 1927 1832 1995 2218 1955 1947 1928 1860 1692 1898 2018 2165 2092 2043 2045 2198 2121 1917 1806 1871 1782 1567 1481 1432 1415 1365 1195 1358 1186 1226 1662 901 768 1368 1399 932 530 193 367
1201 1423 1378 1306 1261 1402 1960 2361 2389 2328 2050 1885 1890 1963 2111 2279 2131 2133 2192 2108 2036 1980 1901 1920 1985 1740 1756 1694 1470 1360 1276 1326 1095 1351 1539 1272 883 1502 1401 781 923 322 120
1441 1505 1528 1445 1467 1486 1511 1587 2011 2114 2104 1943 2001 2081 2270 2112 1978 1824 1762 1710 2025 2046 2114 2319 2310 2301 1762 1573 1549 1340 1361 1293 1344 1185 1359 1350 857 1547 1314 1217 870 468 634
1266 1285 1384 1417 1417 1746 1663 1762 2053 2354 2191 2012 1888 1822 1472 1231 1954 1821 1888 1544 1990 1963 2001 2015 2281 2028 1908 1382 1446 1430 1067 1317 1205 1450 1468 730 683 1532 1281 1502 880 961 461
1015 1142 1350 1333 1797 1762 1424 1699 1577 1362 1180 1153 1147 1588 1458 1540 1943 1675 1547 1573 1531 1551 1943 1617 1937 1368 1450 1346 1438 1575 1376 1141 1202 989 1471 852 666 1407 1689 1400 1293 926 971
916 924 928 1355 1305 1193 1688 1382 1401 1308 1324 1310 1473 1616 1636 1748 1925 1716 1419 2089 2048 1645 1441 1746 1866 1817 1522 750 672 940 854 703 602 1014 1062 803 952 1283 1456 1333 1642 985 877
971 926 1060 1437 1557 1309 1437 1104 1238 1159 971 1218 1600 1819 1747 1265 1615 1352 1448 1531 1250 1091 1206 1307 1247 1191 969 1031 829 798 873 751 731 766 1294 796 577 1133 1095 1731 1588 1547 833
952 996 1174 1555 1821 1870 2089 1091 1199 1106 1041 835 1109 1318 1234 1574 1454 1431 1628 1324 1338 883 1090 1420 1584 1103 1232 1004 921 678 598 504 501 513 688 936 597 703 1044 1695 1898 1668 1071
836 934 1131 1458 2052 1906 2173 2116 1517 909 1343 1211 1039 1073 1432 1238 1497 1434 1338 1452 1310 1345 1597 1468 1269 1438 1306 1059 815 743 744 640 568 623 540 1478 1005 664 863 1243 1788 1720 1269
779 984 1351 1696 1969 2084 2171 2135 2043 1338 974 945 1185 1320 1011 1347 1566 1550 1309 1322 1366 1409 1661 1448 1289 1474 1305 969 767 798 639 918 756 667 693 646 1452 911 561 769 1262 1645 1529
1159 1336 1517 1553 1922 2144 2060 2322 2126 1634 1417 1152 977 894 1069 1276 1637 1422 1065 855 1107 1314 1373 1350 1105 1159 1155 1174 905 804 632 754 714 846 777 874 703 1016 1238 1054 916 1082 1466
1588 1898 1946 1817 1767 2306 2254 2268 2064 1725 1376 1317 1463 1390 1301 2032 1780 1891 1490 1133 1189 1187 942 1097 1162 919 996 1021 901 1036 788 629 480 528 730 735 796 738 877 1482 1137 907 1105
1625 1998 2071 2020 2211 2030 1791 2190 1936 1883 1714 1926 1960 1802 1951 1745 1953 1800 1627 1461 1721 1545 1460 1349 1321 1349 969 1004 888 775 817 622 534 428 386 466 523 653 851 655 1242 1300 1235
1837 2159 2245 2467 2579 2564 2304 2301 2253 2258 2162 2065 1807 2052 1874 1930 1948 2030 1960 1537 1309 1636 1643 1548 1336 1278 1397 1189 743 730 755 883 613 505 469 409 355 386 599 690 939 1127 1483
1644 1834 2154 2342 2687 2827 2522 2649 2579 2149 1391 1037 1335 1556 1654 1209 1171 1132 1151 735 637 431 612 679 841 912 931 651 670 689 520 544 703 529 525 424 431 367 358 648 718 892 800
1619 2124 2197 2465 2753 3194 3152 2313 1817 1249 1248 548 303 463 639 639 375 623 769 724 636 536 190 556 546 741 737 714 532 616 421 308 255 323 690 604 584 397 362 370 593 770 1165
1256 1895 2445 2831 3171 2507 1656 785 781 70 3 237 29 4 144 64 195 293 315 352 534 559 531 559 583 668 708 594 681 611 686 646 644 401 339 547 889 590 463 380 377 510 1025
1163 1625 2400 2749 1509 1032 695 214 36 0 0 0 0 0 20 176 164 176 320 319 294 460 408 464 377 449 514 501 555 604 602 659 620 615 381 413 468 396 484 445 361 391 652
1283 1751 2102 1410 989 634 267 185 88 16 10 0 14 1 0 0 8 130 120 102 189 195 198 269 315 362 401 573 535 593 555 568 472 595 516 408 346 362 309 385 402 368 390

GFSSE_con_mlcape_006.txt.gz
CAPE
192 427 651 863 726 942 1164 1237 1337 1320 1231 1200 1343 1333 1141 947 964 1031 1340 1637 1729 1809 1759 1837 2207 2178 1996 1837 1650 1521 1518 1679 1854 1604 1306 935 737 908 1055 701 323 708 1022
285 446 1079 1159 1045 1161 857 891 1026 1314 1410 1258 1464 1186 922 1057 1125 1091 1267 1337 1397 1581 1767 1886 2180 2281 2058 1862 1830 1890 1827 1745 1659 1767 1485 1024 1045 1262 1088 808 478 921 760
356 449 964 1390 1189 945 813 971 1180 1386 1503 1568 1276 1005 989 1243 1329 1299 1369 1441 1606 1799 1972 1978 1935 2084 2113 2070 2116 2088 1200 1216 985 1183 1097 1083 1084 1443 1049 860 1035 964 682
395 465 705 1325 1316 1309 949 1013 1219 1655 1611 1191 1163 1027 1292 1504 1719 1685 1709 1970 1986 1930 1922 2054 2012 1855 1722 1639 1468 1481 1337 1017 667 742 665 724 819 1280 765 1299 902 585 805
1017 992 976 960 1065 1453 1532 1445 1486 1648 1757 1368 1228 1117 1335 1352 1310 1555 1538 1820 1953 1988 2071 1976 1904 1800 1692 1578 1400 1400 1421 934 854 498 661 855 817 1024 662 239 379 135 185
1277 1093 1147 950 1011 1580 1702 1631 1504 1665 1701 1488 1252 1404 1165 1345 1722 1798 1867 1946 2016 2067 2078 2042 1891 1749 1590 1511 1506 1414 1447 896 161 164 630 887 1079 1181 746 482 819 196 417
1177 1180 1585 2145 2039 1984 1995 1910 1856 1569 1514 1376 1243 1145 1595 1737 1822 1897 1987 1962 1929 1900 1886 1795 1709 1547 1426 1389 1438 1434 1210 1140 510 223 616 535 952 1430 1254 543 834 511 712
1075 1135 1317 2050 2089 2038 2117 1967 1946 1742 1706 1442 1506 1698 1871 1901 1852 1772 1817 1913 1837 1679 1682 1725 1662 1322 1179 1269 1162 1279 1100 1005 868 1016 802 779 695 1274 1262 338 460 726 845
1318 1254 1316 1492 1709 1916 2214 2040 1923 1832 1657 1433 1632 1809 1946 1928 1821 1841 1888 1827 1613 1717 1760 1865 2041 1725 1645 1564 1428 1405 1254 1113 975 1039 803 717 884 1460 919 838 171 130 299
1377 1529 1592 1419 1345 1592 1856 2338 2322 2070 1832 1642 1736 1797 1855 1909 1894 1979 1412 1689 1873 1633 1689 1952 2097 1982 1656 1272 1196 1311 1350 1250 1340 622 877 654 616 1464 1109 908 615 393 60
1295 1345 1369 1623 1722 1591 1593 1655 2137 2152 1973 1810 1761 1725 1478 1325 1207 721 75 379 1556 1573 1271 1564 1709 1876 1733 1529 1261 1358 1659 1238 981 1486 880 459 898 1519 1176 1039 744 443 741
1155 1360 1342 1409 1669 1687 1446 1341 1790 1702 1597 1530 1323 1427 1551 1356 1556 1074 363 730 1406 1389 1453 1655 1336 1627 1421 1294 1249 1345 1696 1320 1298 1200 721 454 623 1655 1076 1451 901 881 506
1083 1006 1231 1621 1636 1859 1564 1566 1812 1597 1425 1405 1417 1557 1678 1490 778 1611 1022 1354 1557 1436 1616 1772 1805 1979 1584 1409 629 705 1041 1222 501 1195 1112 772 450 1164 1540 1400 1353 1023 993
608 1109 1338 1200 1923 1723 1402 1410 1603 1751 1573 1103 1522 1618 1591 1335 1426 1463 1408 1397 1391 1278 1156 1236 1135 1598 1331 1175 1131 804 680 549 583 1205 1017 718 632 866 1133 1450 1484 1254 847
685 889 1273 1603 1221 1830 1479 1436 1010 1003 1007 1154 1667 1442 1512 1535 1331 1252 1440 1698 1397 1491 1304 1288 1524 1485 1295 1282 1242 1019 662 637 530 751 1173 932 607 718 819 1672 1517 1569 1212
745 756 1105 1575 1700 1791 2102 2088 1959 1000 1100 878 1162 1139 942 1354 1381 1366 1217 1492 1608 1250 1773 1737 1619 1315 1395 1380 1081 1005 970 784 695 782 929 1148 635 497 749 970 1824 1766 1705
664 788 1097 1214 2177 2168 2178 2372 2216 1879 880 984 957 907 1147 1438 1556 1401 1078 1117 1156 1687 1528 1543 1630 1474 1501 1289 1309 1090 1025 822 672 930 731 1282 983 782 514 595 1042 2065 1837
674 950 1143 1180 1962 2229 2503 2322 2306 2007 1730 1508 1180 1078 1173 1229 1170 1341 1284 1211 1273 1248 1424 1453 1338 1138 1265 1236 1273 1149 1094 1007 794 1055 859 843 1234 1440 964 557 681 926 1496
1092 1198 1346 1457 2090 2320 2444 2646 2217 2178 1765 1683 1653 1613 1549 1782 1823 1466 1399 1760 1537 1240 1378 1404 1328 1289 1116 849 967 1250 1232 1176 893 605 926 905 806 1050 1355 1135 709 681 973
1309 1604 1764 1636 1861 1995 2279 1847 1951 1781 1695 2040 2110 1926 1771 1810 1712 1443 1561 1413 1308 1258 1239 1021 920 936 983 1254 1157 1038 962 1093 908 718 498 575 1032 871 820 1292 1357 905 915
1399 1642 1866 2084 2350 2378 2109 1641 1934 1754 2005 2001 2182 1705 1812 1771 1611 1858 1721 1548 1375 1211 1163 990 1009 985 796 1004 657 569 862 952 940 1123 935 699 445 639 778 769 1529 1157 1069
1740 2004 1893 2275 2216 2582 2292 2685 2415 1984 2053 1736 1584 2043 1824 1471 1470 930 1168 860 459 717 640 427 375 476 650 709 386 301 337 364 623 706 957 699 626 677 525 580 892 1373 1301
1248 1716 1790 2351 2206 2442 2627 2646 1851 1921 1070 814 940 1113 810 401 284 559 769 746 646 528 412 574 401 310 500 630 572 354 236 46 181 208 792 791 762 588 614 656 705 782 1049
1368 1725 2073 2321 2681 2895 2097 903 637 113 0 354 140 267 21 60 250 309 346 504 655 461 391 468 525 382 404 342 391 552 425 380 330 156 244 521 576 759 807 690 670 912 824
1375 1633 2458 2822 2506 1757 895 168 163 34 0 0 0 0 1 9 176 330 354 480 309 454 407 309 366 241 249 317 352 393 355 266 314 519 256 274 331 594 547 94 148 224 965
1077 1477 2447 2588 1342 743 418 214 56 0 1 0 43 22 79 19 2 372 312 193 187 184 191 74 167 170 170 211 264 272 290 290 260 140 156 251 330 393 511 399 241 193 310

GFSSE_con_mlcape_009.txt.gz
CAPE
153 291 404 391 929 1161 1343 1393 1251 994 757 921 787 842 717 668 956 1382 1300 1364 1521 1490 1988 1817 1932 1955 1634 1490 1450 1503 1526 1739 1654 1266 923 815 1054 1323 730 761 807 821 636
316 745 914 889 989 1301 1384 1308 1160 1148 1277 929 903 1186 875 1046 1639 1499 1286 1414 1584 1768 1987 2162 2120 1893 1680 1671 1663 1433 1307 1487 1017 959 995 982 1193 1193 939 738 758 653 625
448 936 812 1023 1023 1015 1069 1002 1018 1232 1305 970 899 983 1057 1115 1260 1471 1547 1679 1778 1922 1863 1892 1969 2029 1869 1565 1537 1346 955 819 611 897 704 816 1104 1249 1008 979 894 572 943
668 854 848 901 859 797 982 1078 1400 1354 1188 1132 1001 1110 1392 1489 1477 1699 1714 1629 1666 1706 1849 1887 1866 1797 1787 1566 1484 1340 1113 523 660 814 511 662 934 995 1064 920 597 882 733
511 879 1115 1081 996 976 1077 1306 1672 1283 1093 829 1107 1467 1481 1566 1298 1346 1509 1633 1728 1837 1805 1767 1807 1750 1659 1487 1364 1304 1224 861 570 561 507 642 649 753 707 549 222 500 642
477 891 1290 1457 1625 1599 1515 1423 1782 1292 1049 1035 1159 999 1273 1585 1607 1478 1588 1744 1915 1928 1884 1765 1710 1680 1583 1505 1476 1267 1308 1265 1 43 518 668 835 784 437 595 392 329 745
793 989 1218 1464 1728 1655 1721 1608 1506 1550 1290 1212 1274 1253 1738 1603 1718 1767 1822 1825 1745 1714 1634 1621 1591 1494 1345 1194 1254 1271 1162 1483 688 467 165 609 875 990 785 986 455 817 686
996 1484 1982 1980 1816 1891 1796 1686 1719 1542 1272 1056 1171 1719 1614 1664 1519 1594 1699 1742 1653 1489 1487 1449 1499 1255 1160 1168 1198 1140 1316 1105 1160 981 844 772 499 1573 867 581 821 598 907
991 1255 1652 1870 1955 1981 1816 1904 1732 1531 1278 1424 1602 1568 1457 1419 1560 1543 1650 1695 1444 1393 1419 1534 1693 1739 1577 1652 1309 1083 1443 1321 955 1034 939 824 653 1592 711 390 825 790 755
1029 1170 1218 1618 1847 2006 1926 1920 1872 1627 1329 1517 1562 1479 1604 1696 1504 1332 1216 1414 1764 1697 1658 1609 1729 1674 1843 1540 1101 1033 1446 1366 1446 419 393 134 520 1595 941 614 114 188 809
1299 1210 1112 1033 1289 1475 2017 2217 2139 1890 1711 1500 1495 1184 1082 1203 480 0 415 740 1200 1522 1701 1313 1112 1188 1364 1088 1198 1050 1308 1217 1270 1143 504 272 846 1623 1168 985 531 238 268
1279 1329 1290 1270 1331 1371 1362 1693 1500 1454 1311 1133 1034 1024 1033 1100 946 747 601 372 788 1175 1320 1367 1292 1257 1660 1396 1228 1134 1128 1460 1292 1017 786 535 831 1545 1464 1185 647 432 772
906 936 1062 1436 1363 1523 1349 964 1400 1387 1065 998 1308 1280 1249 1372 893 1200 915 1112 1126 1283 1462 1460 1626 1712 1687 1572 1338 703 771 1206 965 1103 653 704 889 1262 1364 1450 995 732 531
908 1205 1142 1509 1669 1549 1276 1321 1622 1463 1322 1242 1212 1456 1256 1311 1225 1414 1273 1352 1303 1261 1275 1020 864 1187 1329 1058 910 981 683 457 666 1161 1000 843 669 1035 1420 1408 1347 1110 910
1022 1275 1313 1464 1473 1267 1190 1571 1554 1494 1617 1387 1519 1427 1505 1319 1219 1026 1264 963 1208 1318 1025 1299 1451 1146 1107 1302 1350 1163 822 519 354 930 991 843 697 611 804 1637 1395 1422 1069
773 1299 1255 1300 1608 1366 1619 1432 1423 1414 965 1162 1353 1467 1563 1675 1305 1171 1092 952 1438 1239 1326 1327 1162 1084 1049 1046 1054 1366 1175 920 399 461 954 1000 690 637 780 895 1547 1517 1548
603 1560 1378 1113 1093 953 1226 1606 1567 1665 1560 891 1126 1255 890 803 1310 1364 1156 981 796 894 1235 1480 1530 1547 1272 1213 1183 1046 1079 1095 735 471 620 1046 1047 726 558 571 1181 1309 1534
358 576 1110 1247 1320 1327 1276 1647 1937 1775 1338 1448 1424 1038 1088 1169 1164 1298 1066 970 1181 1126 1087 853 895 925 934 824 843 835 900 902 830 805 732 971 950 804 784 626 472 762 1353
543 562 673 1244 1773 1768 1852 1957 1854 1752 1603 1521 1452 1651 1630 1895 1679 1426 1286 1209 1682 1419 1241 1103 1223 1001 807 697 663 781 730 819 927 1052 757 882 779 971 958 1054 716 469 593
501 646 886 1222 1670 2016 1687 1801 2259 1851 1729 1570 1772 1574 1480 1566 1525 1187 995 996 1156 1018 892 873 756 600 729 608 750 618 475 427 526 594 644 711 593 772 1101 1103 1075 765 492
795 921 987 1509 1725 1840 1765 1297 1384 1204 1361 1421 1373 1642 1675 1424 1329 1288 795 1193 1241 988 912 809 633 662 639 360 305 119 155 205 231 320 412 755 669 611 718 854 985 1051 856
1066 1218 1348 1606 2052 1935 1932 1663 1947 2014 1653 1736 1379 1697 1649 1390 1320 1399 968 688 510 468 210 194 332 306 221 311 229 104 3 44 63 314 341 487 577 479 368 650 818 1043 979
1506 1450 1376 1576 1497 1891 1509 2096 2122 1359 1582 789 693 886 336 116 154 213 326 303 357 435 319 274 299 224 144 112 224 108 0 0 36 12 69 142 451 473 388 409 451 894 927
1558 1666 1722 1702 1451 1794 2151 2270 1713 922 50 237 187 3 0 66 6 13 146 424 314 188 214 257 229 194 161 41 72 156 53 39 4 6 53 98 203 252 334 324 416 68 33
1554 1486 1737 1738 1851 2162 1411 277 64 0 0 0 0 0 0 0 64 127 429 228 165 11 50 125 0 53 79 62 26 18 44 44 47 33 0 0 0 16 105 250 165 38 5
1317 1643 1719 2095 2125 1380 365 0 0 0 0 0 0 0 2 0 31 400 149 36 43 68 61 2 47 14 0 0 3 0 0 0 0 0 0 0 0 2 12 52 63 64 25

GFSSE_con_mlcape_012.txt.gz
CAPE
112 184 732 771 700 738 1145 1211 1088 1147 1172 941 579 688 673 726 863 1032 1119 1347 1491 1549 1583 1765 1775 1647 1639 1665 1656 1331 1299 1022 1230 1047 1124 1321 1412 802 628 880 852 432 491
213 327 542 1029 1279 1284 1290 861 766 840 1078 1093 793 883 728 1042 1241 1600 1745 1795 1883 1836 2226 2218 2058 1761 1939 1814 1592 1487 1394 998 1321 1103 1201 1373 1268 1121 822 919 601 750 694
499 786 1067 1262 1446 1442 1125 660 826 982 1028 1125 865 933 1350 1458 1308 1587 1903 1974 2069 2052 2000 2128 2082 1873 1761 1790 1672 1383 1150 1026 1071 1147 996 822 1346 1132 1168 902 551 832 639
592 921 1237 1378 1444 1242 1141 1215 1372 988 754 772 853 944 984 1256 1433 1527 1576 1742 1753 1808 1900 1872 1810 1805 1682 1539 1496 1478 1081 966 884 949 733 982 1079 1053 989 632 603 826 230
606 737 1148 1174 1353 1210 1490 1502 1165 1125 1061 1093 1241 1352 1345 1398 1506 1806 1701 1535 1622 1720 1810 1840 1834 1732 1695 1516 1415 1465 1434 875 483 654 567 734 628 954 789 350 597 694 286
702 1075 1346 1331 1388 1591 1745 1293 1285 1035 1183 1369 1494 1443 1271 1413 1461 1763 1729 1785 1806 1827 1766 1741 1654 1554 1561 1618 1603 1387 1589 726 42 455 616 840 687 522 546 365 509 697 830
728 1222 1356 1236 1367 1443 1719 1514 1352 1184 1084 1053 1143 1552 1753 1732 1726 1723 1707 1662 1645 1626 1550 1523 1484 1384 1141 1172 1190 1310 1490 1539 600 415 390 734 837 614 987 862 392 659 474
624 1182 1418 1328 1416 1616 1863 1817 1563 1352 1231 1189 1471 1815 1640 1719 1709 1594 1610 1644 1617 1510 1447 1356 1454 1291 1173 1248 1337 1314 1458 1403 1279 935 641 669 979 1010 948 992 620 865 509
1070 1299 1684 1760 1715 1616 1728 1727 1771 1446 1104 1253 1742 1673 1728 1572 1340 1444 1578 1589 1477 1391 1446 1650 1754 1832 1626 1620 1539 1222 1401 1513 949 999 537 725 718 1631 927 710 803 857 634
1497 1634 1670 1824 1991 1857 1811 1735 1511 1440 1432 1428 1511 1457 1454 1472 1483 1374 1208 1264 1685 1730 1769 1720 1393 1224 1027 1029 1055 994 1313 1225 1126 868 974 803 669 1636 746 716 736 766 900
1005 1173 1482 1742 1708 1544 1716 1797 1713 1359 1216 1160 1184 1150 1298 1355 1078 217 458 611 1056 1175 1363 1584 1041 787 1023 1023 1145 945 1210 1451 1081 928 245 89 566 1653 905 647 276 486 958
946 864 925 1153 1465 1581 1867 1954 1631 1456 1101 900 898 926 1043 1041 938 684 582 713 507 826 1248 1158 1159 1122 1309 1567 1270 1246 1055 1321 1238 1159 901 144 608 1596 1257 1026 506 243 470
1039 1036 957 1038 1282 1377 1497 1545 1468 1396 966 701 641 882 1034 1053 1039 949 1024 824 992 1163 1259 1362 1405 1343 1193 1241 1306 1099 764 1085 1013 1117 1052 709 543 1638 1527 1392 777 588 431
1130 1095 1164 1218 1297 1315 1218 1204 1068 1142 879 754 801 1108 1163 1149 984 804 1103 1027 1180 1142 1157 992 939 1050 1212 1135 957 935 720 432 506 933 903 774 520 882 1503 1491 1277 777 656
833 927 1324 1488 1328 1439 1482 1043 1322 1369 1276 1106 1103 1088 1374 1276 938 1040 1159 1030 783 1118 932 1202 1213 1035 988 1009 930 983 993 789 424 840 938 794 704 590 880 1363 1445 1263 936
982 1177 1398 1520 1379 1441 1229 1462 1424 1640 1644 1391 1344 1263 1278 1513 1253 994 882 821 954 1022 1085 1276 1181 1164 1182 1131 1069 1159 1097 969 924 550 857 1016 821 636 689 932 1632 1490 1308
1070 1375 1452 1429 1367 1248 1479 1386 1350 1457 1323 1046 1362 1217 1359 1422 1510 1173 943 942 879 758 867 993 932 890 928 909 854 852 873 894 969 613 701 814 981 821 609 562 1071 1325 1714
1046 1193 1233 1399 1383 1197 1197 1331 1334 1286 1348 1234 1059 1167 1311 990 938 1177 852 851 908 933 1052 759 851 890 948 842 694 607 542 650 770 852 703 782 950 969 785 620 633 969 1191
789 1027 1106 984 865 951 1137 1323 1456 1514 1338 1119 1239 1315 1367 1525 1384 1215 942 999 929 757 734 768 812 721 508 449 440 442 388 411 336 497 539 658 770 764 752 763 662 691 653
320 712 1049 993 1122 1485 1447 1485 1533 1540 1592 1446 1402 1196 1322 1123 1060 1067 944 729 796 705 684 612 559 386 543 629 313 118 132 101 69 92 210 543 579 814 813 647 751 978 698
383 409 484 862 1317 1641 1544 1371 1326 1484 1387 1274 1158 1274 1380 1276 1115 821 483 720 929 483 306 136 191 232 409 243 86 42 0 0 0 78 219 373 447 578 509 585 618 784 819
399 411 619 998 1383 1574 1577 1369 1204 1178 1168 1187 1340 1340 1356 1066 1031 959 718 570 392 269 144 185 163 101 75 191 72 28 0 0 0 0 0 67 156 197 334 391 426 583 607
558 690 809 1155 1389 1572 1452 1429 1588 1620 1454 1049 610 830 582 195 117 58 160 110 146 92 44 111 120 76 7 25 31 70 4 0 0 0 0 4 11 0 26 130 352 368 320
816 876 1129 1547 1493 1683 1666 1501 1448 786 534 103 245 2 0 0 0 0 6 116 112 57 23 43 30 35 8 0 0 43 19 21 0 0 0 0 0 0 0 0 121 327 159
1103 1053 1215 1261 1272 1321 1398 1368 1551 875 0 26 0 0 0 0 0 13 166 76 3 0 0 3 0 0 4 2 0 0 0 0 0 0 0 0 0 0 0 0 0 0 47
1216 1352 1260 1062 991 1323 1393 1083 344 0 0 0 0 0 0 0 0 2 0 0 0 0 0 0 0 0 5 8 0 0 0 0 0 0 0 0 0 0 0 0 0 0 0

GFSSE_con_mlcape_015.txt.gz
CAPE
113 179 423 613 506 595 520 476 469 536 555 646 905 1079 1041 857 703 822 1311 1599 1797 1842 1887 1824 1561 1585 1767 1496 1712 1311 1592 1502 1113 1283 1489 1522 1030 924 1060 1057 443 453 505
170 301 635 739 619 632 885 962 1026 868 686 1055 1181 1345 1075 930 1053 1447 1777 1879 1996 2094 1821 1768 1589 2007 1667 1736 1466 1325 1135 1132 1163 1360 1516 1382 1313 1058 916 893 624 780 557
255 393 933 937 1126 1206 1184 1191 1351 1243 738 1169 1237 1198 1171 1330 1387 1540 1803 1860 1876 1798 1950 1973 1887 1791 1722 1749 1625 1312 1191 1175 1242 1264 1309 903 1037 1278 1159 651 752 749 896
469 810 1195 1217 1370 1053 1157 1159 1321 1348 982 1265 1153 1250 1213 1232 1613 1691 1906 1776 1720 1758 1917 1784 1733 1673 1569 1562 1540 1475 1077 1096 1341 1052 919 1110 979 1179 965 448 775 516 808
874 1189 1360 1322 1408 1391 1340 1105 853 929 813 798 835 1034 1374 1387 1545 1782 1711 1521 1639 1751 1747 1715 1636 1575 1503 1430 1397 1572 1422 879 807 767 680 891 696 1055 588 619 898 350 172
837 1195 1502 1535 1541 1576 1531 1112 952 992 1134 1183 1372 1520 1559 1612 1853 1822 1587 1695 1821 1745 1606 1514 1500 1480 1486 1589 1585 1381 1504 720 314 526 665 756 594 872 481 315 798 445 416
826 1257 1474 1648 1677 1645 1283 1336 1400 1561 1806 1923 1830 1648 1649 1617 1776 1752 1804 1807 1684 1524 1502 1499 1475 1434 1319 1246 1313 1358 1584 1424 496 437 575 912 631 547 573 605 652 1007 757
913 1296 1503 1643 1805 1585 1482 1467 1323 1434 1466 1447 1747 2015 1947 1876 1899 1835 1709 1575 1492 1505 1530 1400 1459 1478 1306 1348 1425 1390 1421 1494 1535 926 341 742 811 759 1203 818 463 672 747
1157 1146 1268 1404 1569 1888 1756 1442 1455 1512 1435 1457 1818 1912 1768 1735 1579 1612 1600 1532 1514 1564 1509 1679 1702 1738 1544 1507 1276 1033 1398 1492 904 956 757 600 967 1050 954 930 708 805 765
1036 1166 1138 1489 1700 1814 1898 1816 1584 1443 1213 1587 1824 1726 1647 1493 1353 1519 1304 1080 1294 1550 1544 1675 1116 948 933 1094 858 1014 1148 1233 1193 950 725 543 888 1348 982 705 870 896 608
954 1171 1323 1228 1576 1472 1641 1723 1846 1556 1546 1660 1802 1813 1733 1509 1119 852 726 820 942 1085 1219 1013 991 875 858 1200 1111 905 1053 1332 1116 822 719 642 735 1437 1090 746 798 638 1031
1012 1234 1283 1581 1483 1761 1507 1668 1660 1445 1608 1531 1457 1471 1308 1160 1113 905 639 736 964 822 1126 1119 1019 890 1198 1264 1136 1112 1032 1185 1160 788 879 42 577 1321 1316 762 531 474 931
546 850 1194 1366 1392 1330 1450 1488 1493 1360 1343 1168 1022 1049 1147 926 1015 1043 1080 973 911 1175 1243 1263 1227 1280 1121 996 940 882 803 647 1006 1056 1129 992 343 1010 1649 1251 708 337 306
663 629 824 1064 1195 1141 1437 1528 1415 1288 1285 924 761 813 1001 1099 1152 874 889 986 1042 1135 1076 972 864 906 1034 886 869 837 858 691 404 524 835 1240 808 704 1678 1558 1318 739 437
805 779 826 917 1061 1106 1122 1238 1136 914 1034 908 808 797 1123 1127 1085 1001 1002 1036 1081 1043 958 1119 1058 1003 957 977 1004 1027 1036 989 878 640 649 1018 950 564 1045 1219 1398 1221 777
906 869 980 1098 1167 1193 1378 1186 935 1161 1246 1304 1073 1190 1110 1194 1375 1171 981 901 835 981 1020 1002 879 986 1022 964 850 805 824 822 900 832 667 760 1005 568 568 697 1101 1512 1141
835 912 1132 1290 1175 1205 1386 1276 1143 1348 1370 1295 1274 1324 1396 1319 1338 1297 1156 819 865 788 881 996 839 776 820 771 796 688 579 580 550 716 727 726 848 700 530 462 454 550 1451
754 908 1124 1481 1170 1127 1290 1263 1254 1446 1172 1093 1060 1030 1259 1263 1055 1245 872 709 794 797 818 812 803 815 706 524 370 279 205 227 271 457 645 673 671 783 751 624 476 532 696
716 979 1183 1349 1140 1112 1141 1383 1305 1283 1196 1196 1106 1037 1110 1121 1142 1109 756 728 796 643 646 655 725 607 307 333 316 168 101 44 80 186 47 209 414 702 768 780 691 527 503
690 952 1084 1254 1095 1079 1184 1223 1166 1301 1277 1328 1222 1225 1224 1063 1032 880 803 736 613 512 413 219 142 249 365 532 234 19 0 0 21 62 39 207 345 435 487 662 716 641 714
629 842 978 977 962 1031 1139 1185 1213 1219 1358 1283 1151 1191 1200 1177 1091 933 381 388 523 241 119 89 90 126 207 212 56 0 0 0 0 0 0 45 28 181 398 487 590 367 479
325 600 793 854 927 1113 1236 1257 1218 1044 1079 1080 1019 1158 1315 1157 937 564 370 531 297 142 53 58 47 12 52 146 23 0 0 0 0 0 0 0 0 0 0 113 348 425 499
245 257 388 750 829 1066 1283 1361 1326 1286 1397 1015 923 905 1193 1088 1026 828 458 172 60 0 0 0 21 0 0 35 52 44 0 0 0 0 0 0 0 0 0 0 69 239 358
305 293 319 598 814 1147 1360 1462 1290 956 632 321 352 203 185 22 0 0 0 0 0 0 0 0 0 0 0 0 16 79 49 38 0 0 0 0 0 0 0 0 0 0 62
332 392 499 755 993 1294 1443 1436 1427 1052 521 79 47 0 0 0 0 0 0 0 0 0 0 0 0 0 0 0 0 0 0 0 1 0 0 0 0 0 0 0 0 0 0
419 486 704 785 1043 1258 1359 1404 1175 908 420 33 0 0 0 0 0 0 2 1 0 0 0 0 0 0 0 0 0 0 0 0 0 0 0 0 0 0 0 0 0 0 0

GFSSE_con_mlcape_021.txt.gz
CAPE
165 175 267 272 285 190 261 402 489 672 419 507 680 692 811 1024 1271 1532 1785 1895 1937 1661 1530 1617 1793 1832 1770 1712 1772 1559 1451 1426 1627 1731 1456 1347 1193 756 733 547 465 295 899
198 253 334 289 283 322 299 378 570 628 708 728 561 779 845 995 1394 1587 1764 1930 1881 1785 1594 1797 1851 1815 1644 1575 1593 1525 991 1265 1519 1402 1351 1232 941 1147 967 731 260 587 1065
204 339 529 749 817 820 580 618 593 752 796 781 935 927 841 1186 1591 1843 1966 1969 1925 1948 1843 1790 1650 1586 1622 1654 1547 1252 808 980 859 1194 805 489 819 1136 637 759 694 945 892
182 402 414 659 1012 955 833 864 838 973 1071 1348 1413 1161 1332 1740 1905 1961 1758 1605 1770 1851 1729 1738 1660 1661 1581 1556 1406 1051 892 937 1012 824 815 738 559 1074 500 905 923 1048 434
629 737 868 959 1270 1266 1169 1003 1164 1412 1559 1537 1467 1404 1865 1918 1795 1790 1583 1500 1710 1753 1731 1639 1480 1489 1494 1602 1437 1269 1078 604 1045 883 1260 1023 758 636 424 1085 682 872 719
840 900 956 1144 1192 1221 1291 1033 1363 1407 1525 1602 1563 1751 1744 1601 1703 1534 1532 1689 1681 1603 1550 1485 1431 1418 1394 1368 1378 1316 1359 958 376 977 1137 905 707 532 547 1102 392 419 1055
832 1126 1134 915 1177 1301 1515 1388 1349 1345 1467 1699 1655 1609 1705 1730 1761 1649 1767 1717 1593 1489 1458 1472 1434 1489 1425 1324 1326 1221 1180 1132 1020 1114 1259 1238 962 621 412 927 389 467 1070
819 1137 1190 1132 1340 1247 1265 1358 1259 1289 1451 1475 1476 1571 1546 1701 1558 1601 1491 1356 1418 1521 1589 1601 1666 1379 1582 1425 1286 1175 1119 864 1204 1282 981 1341 810 730 747 653 964 907 1040
1036 1100 1273 1408 1672 1388 1435 1589 1747 1863 1786 1642 1781 1774 1723 1627 1579 1440 1422 1404 1526 1676 1827 1942 1531 959 924 1019 996 971 1009 1016 1366 1473 1072 1268 848 824 1096 749 766 1051 697
928 1217 1634 1587 1412 1136 1315 1739 1753 1730 1844 1964 2024 1903 1757 1614 1325 1337 1566 1228 1263 1554 1537 1580 1207 843 861 952 1007 851 799 861 1558 1600 1472 1148 810 966 846 991 610 758 825
1130 1254 1362 1374 1307 1394 1406 1344 1545 1682 1615 1818 1963 1885 1593 1346 1462 1559 1388 857 735 1079 1259 1521 1146 907 972 1197 1123 1218 1124 1429 1579 1525 1438 682 636 984 1089 947 716 1149 827
790 1076 1095 1177 1092 1322 1068 1352 1420 1325 1063 1392 1564 1834 1650 1509 1509 1440 1231 969 1223 1428 1392 1250 1036 1042 1225 1454 1535 1212 1265 1291 1610 1621 1440 837 831 1186 1291 1065 603 801 1138
713 868 1196 1533 1683 1480 1427 1564 1544 1400 1219 1475 1755 1704 1705 1469 1451 1522 1510 1567 1602 1296 1581 1529 1545 1479 1636 1539 1365 1357 1366 1371 1183 1277 1166 897 965 905 1039 1515 949 1039 649
644 793 1019 1261 1627 1682 1405 1192 1322 1191 1266 1229 1206 1371 1303 1184 1364 1356 1459 1349 1473 1610 1422 1547 1496 1714 1643 1646 1627 1597 1550 1599 1379 1433 1361 912 1033 898 982 1191 1187 1067 817
598 750 1109 1325 1415 1687 1706 1196 965 1208 982 1137 1116 1061 1002 980 1226 1186 1512 1101 1115 1512 1370 1193 1568 1623 1596 1554 1634 1524 1398 1438 1509 1336 1321 914 1155 1369 1047 913 953 1273 1023
756 754 1070 1320 1540 1706 1506 1580 1325 1360 1261 1264 1232 1055 931 1033 1302 1141 1278 1281 987 1441 1531 1229 1213 1354 1527 1441 1400 1474 1322 1148 1056 1131 1174 1358 780 1176 947 737 680 707 1062
669 729 711 931 1258 1360 1197 1190 1374 1478 1489 1308 1274 1502 1474 1032 1467 1214 1163 970 1282 1418 1364 1383 1157 1391 1146 1242 1241 849 728 567 425 512 621 924 1200 884 1014 688 545 683 600
733 605 699 617 823 1070 1087 1192 1416 1477 1464 1497 1162 1795 1749 1590 1592 1607 1412 711 1302 1202 1276 1083 1146 1126 1074 868 809 640 503 413 367 374 406 470 532 809 1096 933 956 829 703
974 758 761 850 976 978 1151 1371 1612 1875 1824 1672 1764 1093 1174 1271 1296 1705 1106 1046 1081 1265 767 1036 918 639 413 360 228 171 274 312 350 316 528 774 653 630 835 1099 816 832 910
1115 1102 978 1066 1283 1390 1456 1569 1645 1820 1849 1897 1869 1823 1551 1059 1043 958 1016 881 1315 1156 852 446 308 315 223 185 99 51 189 304 229 377 663 280 683 672 1082 1336 1365 1285 912
1137 1091 961 1056 1326 1595 1355 1213 1377 1441 1774 1867 1833 1374 1465 1129 1058 1083 1057 1027 1110 829 447 359 214 144 93 339 83 0 41 181 149 272 350 19 20 50 304 746 1198 1290 1321
1074 1000 1032 1040 1211 1404 1624 1536 1494 1686 1741 1809 1852 1871 1882 1871 1710 1407 1346 1101 842 526 398 140 102 0 47 315 7 10 0 69 164 195 64 0 0 1 0 0 89 496 874
927 1042 1055 1101 1111 1250 1510 1708 1548 1468 1411 1454 1641 1742 1691 1721 1752 1649 1231 914 745 472 76 28 49 79 0 45 35 20 0 0 0 54 156 0 0 0 0 0 0 0 0
744 975 1030 1121 1148 1282 1584 1489 1390 1316 1432 1578 1438 1389 1790 1787 1601 1446 1037 824 478 103 3 39 18 0 0 0 28 63 30 1 0 0 0 0 0 0 0 0 0 0 0
527 757 870 1044 1047 1294 1527 1431 1406 1409 1628 1727 969 622 791 1046 1459 1504 1109 398 25 6 77 0 0 0 3 0 7 2 19 1 0 0 0 0 0 0 0 0 0 0 0
398 521 780 914 857 1153 1384 1376 1325 1385 1652 1285 799 384 436 371 262 201 161 35 57 76 16 0 0 0 2 7 0 0 0 0 0 0 0 0 0 0 0 0 0 0 0

GFSSE_con_mlcape_024.txt.gz
CAPE
46 115 190 244 326 348 382 461 394 394 481 559 747 1038 1500 1397 1647 1996 1946 1833 1808 1629 1770 1886 1792 1718 1713 1677 1653 1665 1483 1618 1863 1632 1433 1367 824 911 601 441 338 120 1039
219 285 337 410 228 453 621 756 613 499 587 676 777 1201 1341 1558 1886 2098 2038 1923 1847 1632 1722 1785 1796 1756 1694 1595 1457 1243 1223 1273 1536 1528 1340 863 1169 1052 742 224 553 594 1067
232 333 359 399 320 479 667 888 898 833 833 656 910 1016 1281 1696 2013 2045 2022 1954 1942 1794 1707 1650 1641 1641 1574 1578 1333 1228 979 1066 1039 1233 457 285 512 1099 494 937 634 1046 1034
377 469 436 371 570 827 920 904 1055 1006 796 1006 1157 1101 1576 1850 2009 1969 1802 1860 1880 1823 1752 1655 1566 1543 1569 1532 1425 1214 982 1065 1041 601 875 169 309 720 799 983 1084 961 1233
513 554 666 575 725 799 1014 1085 1285 1281 1382 1512 1302 1325 1746 1912 1939 1825 1578 1685 1810 1784 1619 1480 1474 1516 1505 1615 1547 1312 1186 985 860 823 1065 409 241 142 829 805 711 362 764
732 763 774 1181 1289 1376 1302 1483 1605 1594 1576 1485 1318 1744 1708 1751 1787 1512 1625 1747 1682 1559 1497 1465 1466 1448 1350 1208 1313 1228 1490 998 586 1139 1284 458 413 270 1045 663 518 786 425
764 830 1130 1384 1490 1473 1268 1467 1351 1432 1425 1527 1680 1673 1692 1842 1746 1700 1655 1518 1391 1412 1525 1555 1665 1604 1524 1362 1255 1208 1301 1245 1457 1536 1425 1258 604 470 555 570 256 375 920
701 901 814 922 1355 1496 1313 1399 1404 1447 1645 1687 1634 1726 1815 1808 1604 1528 1413 1349 1419 1632 1781 1891 1461 1300 1204 1191 1152 1060 1090 908 1356 1490 1242 1550 689 721 595 1017 870 720 917
987 900 887 1079 1263 1500 1697 1342 1329 1423 1544 1610 1611 1666 1801 1758 1541 1322 1452 1504 1781 1842 1821 1706 1521 975 882 1001 1042 860 943 910 1606 1588 1186 1458 694 812 1044 784 1369 951 1116
894 1003 1324 1447 1105 712 907 1498 1792 1874 1827 1786 2081 1915 1815 1412 1084 1179 1055 1581 1196 1469 1629 1615 1462 1056 925 1121 1238 988 967 981 1520 1603 1515 1467 708 887 1047 973 756 969 795
1029 1064 1314 1370 1042 985 1056 1425 1707 1775 1917 1998 1787 1657 1027 1060 1202 1229 1290 602 763 1236 1424 1404 1166 1063 913 1104 992 923 1063 1122 1283 1352 1441 766 670 1164 973 1149 634 986 815
939 1173 976 852 989 1152 992 1249 1174 1109 995 1123 1178 1492 1201 1080 1364 1321 1228 1139 1169 1207 1194 996 931 912 1143 1296 1465 1238 1301 1206 1180 1253 1511 812 736 1078 1281 1171 765 1179 1035
845 840 876 764 1057 1129 924 1042 1022 1021 955 1137 1547 1536 1263 1301 1474 1563 1501 1587 1677 1465 1227 1426 1483 1363 1501 1532 1424 1403 1364 1287 1135 1070 1236 841 1110 1116 1511 1559 1208 923 971
873 887 976 1099 1059 1042 1050 982 1009 963 982 902 822 1310 1208 1244 1338 1502 1377 1537 1353 1532 1442 1495 1487 1707 1660 1648 1678 1658 1544 1482 1241 1200 1263 1000 1154 1269 1463 1497 1552 1221 1001
812 871 1060 1267 1618 1486 1444 927 798 899 813 784 815 819 946 1157 1363 1572 1571 1153 1248 1220 1509 1483 1513 1545 1664 1584 1632 1680 1608 1604 1633 1353 1232 1118 1016 1347 1353 1483 1551 1431 1205
603 696 944 1213 1327 1450 1411 1291 986 886 740 780 679 748 1251 1322 1408 1226 1003 1304 1250 1259 1593 1605 1437 1494 1566 1580 1472 1445 1525 1399 1296 1357 1220 1466 967 1105 1276 1448 1258 1302 1208
693 671 820 1187 1294 1530 1497 1505 1327 936 877 876 1107 1395 1578 1564 1361 1425 1104 1000 1014 1508 1615 1471 1375 1465 1262 1098 1065 1026 1021 801 500 506 420 478 1133 868 927 1225 1103 806 1112
779 803 879 865 1037 1455 1415 1434 1255 1164 1315 1276 1480 1305 1623 1373 1417 1325 1255 819 946 1587 1518 1321 1238 473 192 111 104 161 203 139 43 61 69 173 15 225 929 811 713 610 697
834 875 941 853 803 1156 1435 1570 1647 1599 1824 1660 1663 1706 1359 1468 1289 1409 1144 1201 1581 1358 1220 1114 398 357 4 0 0 0 0 25 56 125 334 464 328 257 180 871 900 724 854
1043 1029 1090 954 1093 1308 1425 1849 1660 1615 1769 1579 1723 1739 1662 1380 1396 1468 1116 1203 1119 1377 1179 640 611 33 0 0 0 0 3 54 144 308 428 320 677 672 725 956 853 832 928
1195 1226 1281 1274 1414 1873 1814 1604 1462 1482 1482 1802 1848 1968 1701 1638 1314 1513 1129 1145 934 1188 857 770 126 0 0 1 0 0 2 38 78 205 350 147 207 365 598 825 1022 749 1116
1264 1356 1487 1500 1715 2091 1875 1753 1488 1474 1515 1524 1769 1971 2100 2054 1826 1418 1399 1371 1300 502 1026 541 2 0 0 6 0 0 0 31 58 128 83 1 0 24 69 227 787 1052 1051
1245 1487 1579 1815 1788 2162 1946 1946 2076 2039 2045 1888 1683 1727 1669 2045 2005 1926 1595 1374 1527 836 96 53 0 0 0 0 14 0 1 4 0 60 124 1 0 0 0 0 0 0 0
1106 1458 1684 1955 2153 2121 2317 1838 1849 1579 1165 840 980 815 917 1664 1806 1849 1856 1605 1600 341 10 0 2 0 3 0 1 0 26 39 9 18 11 0 0 0 0 0 0 0 0
961 1150 1549 1957 2302 2254 2277 2230 1943 1989 1263 1332 1364 1560 1286 1509 1844 1418 1894 1522 1151 9 46 68 12 0 0 0 4 3 0 1 0 0 0 8 0 0 0 0 0 0 0
640 838 1170 1858 2349 2438 2293 2492 2351 1927 1788 1268 1717 1542 661 469 1096 1693 1598 1336 412 4 213 70 1 0 10 7 7 5 5 2 6 5 4 8 8 1 0 0 0 0 0

GFSSE_con_mlcape_027.txt.gz
CAPE
114 75 176 324 407 393 334 358 422 542 799 1079 1410 1620 1484 1766 1886 1870 1799 1723 1600 1769 1762 1688 1618 1580 1522 1509 1461 1469 1486 1741 1723 1417 1324 862 992 699 236 339 594 594 1300
185 218 321 415 401 504 460 397 478 688 678 1165 1337 1511 1555 1819 1926 1935 1837 1768 1641 1707 1604 1556 1565 1529 1551 1374 1262 1242 1287 1475 1514 1211 1222 1092 1094 831 544 633 560 912 1202
237 244 369 400 519 713 809 832 671 769 707 935 1084 1368 1719 1872 1954 1962 1889 1864 1745 1690 1602 1586 1540 1489 1439 1387 1295 1114 1127 1123 906 706 902 930 524 413 803 560 1151 1199 1121
194 268 151 481 645 925 1095 1137 1085 962 776 976 1111 1487 1768 1966 1949 1699 1808 1860 1806 1700 1535 1443 1472 1491 1571 1481 1341 1224 1011 1032 834 741 1273 409 159 675 1051 934 1068 997 1232
362 347 334 702 792 1128 1188 1321 1197 976 1136 1218 1228 1578 1899 1993 1851 1541 1734 1762 1693 1517 1410 1392 1394 1390 1330 1336 1332 1378 1197 955 734 956 863 231 116 469 1043 853 536 733 838
686 680 286 640 846 1260 1359 1560 1495 1575 1643 1309 1401 1819 1835 1850 1591 1633 1748 1618 1528 1445 1416 1382 1430 1487 1457 1349 1278 1256 1232 1010 765 1391 826 288 163 824 877 983 1117 950 813
838 802 679 1038 1063 1482 1677 1765 1778 1756 1658 1339 1629 1777 1774 1831 1642 1759 1552 1411 1401 1544 1683 1694 1637 1388 1499 1517 1380 1221 1240 1210 1319 1378 1306 924 150 536 1310 203 502 800 1193
575 971 1074 1498 1635 1550 1726 1597 1581 1509 1502 1626 1724 1742 1882 1847 1701 1528 1308 1294 1493 1705 1850 1874 1507 1080 1050 1178 1200 1189 1109 1084 1420 1384 1460 1405 321 451 1274 660 310 1128 773
620 659 907 1147 1555 1586 1537 1452 1475 1581 1696 1683 1672 1759 1869 1669 1500 1127 1080 1240 1482 1728 1720 1662 1430 1019 958 996 1071 821 873 1027 1635 1457 1432 1684 621 873 707 1176 1359 1004 978
856 754 893 933 1082 1496 997 1295 1390 1538 1580 1555 1763 1821 1554 1161 685 819 1218 1525 1058 1202 1449 1595 1477 1014 844 997 745 724 1048 1195 1683 1331 1583 1345 688 965 1317 799 1233 986 1025
955 1096 1008 1061 724 800 811 1000 1722 1833 1735 1797 1764 1456 665 1197 1331 1774 1203 673 728 1391 1114 1232 1145 985 984 1282 1078 931 1165 1378 1314 1639 1402 734 793 1050 1176 1183 708 1014 802
810 1137 932 1004 785 872 849 1467 1218 1112 1037 981 920 1542 1000 1218 1394 1253 1041 655 947 1123 1194 1123 1066 1091 1283 1688 1721 1422 1481 1266 1217 1388 1609 761 907 1284 1308 1557 881 1085 851
971 840 1150 983 880 770 1237 889 1072 1028 1006 979 1412 1475 1090 1284 1182 1335 1472 1687 1635 1590 1770 1534 1542 1544 1562 1490 1457 1519 1260 1307 1153 1323 1298 682 979 1322 1539 1673 1412 1013 1440
716 617 607 764 995 937 1045 735 811 702 708 748 1010 1471 1403 1330 970 1190 1375 1295 1668 1348 1544 1569 1471 1562 1605 1488 1406 1509 1415 1427 1414 1336 1365 934 892 1347 1690 1848 1802 1168 1122
762 643 660 839 1091 1134 1391 796 692 654 682 664 814 1032 985 1153 1233 1341 1715 1328 1047 1029 1500 1364 1408 1694 1398 1731 1399 1671 1538 1547 1294 1387 1644 1159 1118 1091 1538 1840 1819 1850 1406
821 794 895 1086 1286 1315 1308 1486 970 1010 897 722 749 696 1254 1443 1475 1506 1403 1124 1462 1090 1462 1603 1677 1615 1414 1513 1437 1224 1234 1282 1191 1210 1222 1698 1204 1035 1022 1276 1780 1515 1256
677 807 938 1131 1287 1489 1433 1439 1215 971 746 748 661 1025 1227 1777 1517 1346 1455 1398 1123 1332 1892 1867 1660 1472 1191 1094 905 1274 810 780 570 324 339 145 1057 1216 1034 796 1153 1346 863
543 663 898 987 1063 1406 1517 1539 1314 1014 914 853 864 1270 1876 1808 1871 1674 1360 1214 1101 1504 1584 1484 1151 951 291 84 1 0 0 0 0 4 14 123 114 107 1090 826 784 817 739
687 757 892 979 965 1318 1632 1577 1437 1318 1216 1552 1493 1058 1500 1655 1807 1705 1461 1547 1751 1420 1492 1319 922 311 14 0 0 0 0 1 7 53 133 347 328 220 108 943 692 723 789
692 841 1053 1027 1046 1332 1570 1709 1619 1658 1808 1716 1149 1305 1854 1715 1608 1779 1413 1288 1570 1092 1417 843 715 99 0 4 0 0 0 1 29 83 284 203 464 462 711 841 1026 1180 780
741 876 1073 1213 1406 1441 1378 1393 1319 1301 1495 1573 1299 1680 1917 1966 1886 1723 1538 1287 1288 1137 879 647 130 0 0 1 0 7 1 1 7 66 181 47 154 325 479 744 1110 1197 754
829 1089 1295 1526 1819 1861 1591 1495 1202 1009 943 1510 1405 1102 2182 1844 1994 1366 1518 1056 1216 982 936 309 40 0 0 8 0 0 11 18 13 58 39 5 0 7 115 383 658 748 1022
865 1200 1626 1960 2162 2198 1953 1817 1560 1902 1492 1331 536 568 757 1296 1015 1839 1816 1411 1624 337 384 242 0 0 0 0 1 0 10 32 2 23 87 3 0 0 0 19 0 0 34
843 1243 1745 2237 2460 2448 2339 1869 1668 1449 921 487 498 565 575 726 670 1763 1459 918 1124 767 184 0 0 0 0 0 0 0 0 0 1 32 21 0 0 0 0 0 0 0 0
755 1040 1520 2420 2753 2590 2596 2107 1862 1544 783 764 642 1347 1107 1081 808 696 697 1286 1091 203 153 5 0 0 0 0 4 2 5 4 0 0 2 16 11 0 0 0 0 0 0
673 856 1238 2282 2971 3188 2943 2896 2551 2238 1287 1067 860 1398 863 398 738 691 866 1238 1206 336 48 42 30 0 0 4 0 0 0 5 18 20 19 23 21 12 13 0 0 0 0

GFSSE_con_mlcape_030.txt.gz
CAPE
20 14 125 249 291 353 441 596 922 1140 1163 1410 1539 1451 1688 1607 1755 1632 1552 1686 1717 1774 1753 1662 1563 1489 1418 1427 1453 1401 1747 1595 1354 1218 938 962 588 144 179 495 575 1070 1480
92 147 284 397 421 484 550 604 743 908 1173 1328 1490 1490 1774 1780 1751 1688 1604 1656 1692 1657 1641 1612 1495 1438 1323 1294 1231 1213 1138 1236 1447 1242 1063 949 496 375 722 1063 924 1241 1361
170 245 398 445 684 585 501 649 588 866 1209 1453 1527 1745 1752 1825 1771 1737 1733 1674 1686 1647 1577 1555 1522 1489 1374 1308 1155 1138 987 835 931 985 999 753 238 628 778 1141 1262 1228 1332
149 267 222 628 735 842 863 875 758 834 1006 1250 1465 1664 1767 1737 1555 1620 1726 1722 1640 1448 1417 1437 1424 1425 1453 1341 1267 1057 749 565 710 1063 1117 878 256 855 772 1100 929 1322 1211
118 166 560 786 718 988 1302 1308 1043 971 1111 1268 1494 1642 1756 1719 1425 1667 1689 1600 1441 1367 1345 1337 1338 1272 1200 1166 1116 1193 846 563 645 1072 801 116 186 870 1025 882 660 834 1024
272 288 710 888 972 1267 1444 1294 1070 1350 1300 1114 1520 1716 1744 1555 1425 1677 1508 1433 1353 1439 1429 1506 1469 1367 1293 1154 1045 954 979 943 713 1221 454 102 283 800 1022 751 1250 729 948
495 331 692 988 1340 1437 1610 1566 1628 1649 1320 1397 1657 1603 1668 1536 1599 1544 1319 1276 1414 1629 1704 1779 1416 1130 1248 1197 1015 777 872 1274 1216 1064 1045 122 371 914 671 964 808 1128 1241
736 624 758 1224 1533 1698 1756 1783 1693 1618 1348 1498 1571 1577 1645 1560 1554 1203 1146 1252 1518 1684 1674 1584 1145 887 839 844 788 762 868 1148 1373 1060 1033 207 61 1255 104 159 885 1021 820
799 867 1094 1286 1558 1789 1621 1526 1468 1420 1505 1573 1426 1476 1614 1370 978 856 902 1081 1045 1315 1467 1420 1138 748 708 657 683 587 637 966 1079 615 1314 364 132 898 1056 669 809 992 958
681 1005 1289 1403 1250 1279 1262 1324 1401 1511 1498 1287 1322 1337 1452 1230 960 1024 1136 1209 773 740 985 1010 896 752 706 851 866 781 702 1063 91 108 1126 740 502 689 691 1238 847 1204 1124
568 586 817 1349 1513 1011 804 989 1322 1401 1405 1332 1501 1342 1322 993 1044 1385 1580 745 518 930 867 899 940 986 848 1104 1216 1120 714 1296 763 459 1138 547 718 1188 1176 714 1046 943 957
525 714 579 593 752 944 622 852 1287 1122 1053 1042 1277 1150 753 1150 1154 1617 1495 965 915 1103 1201 1137 1148 1130 1089 1286 1254 1545 1424 1126 205 29 1154 876 851 1066 1487 1121 720 868 852
1054 915 1057 776 643 720 1321 933 1341 1290 1258 1208 1358 1569 1658 1621 1199 1134 1346 1663 1431 1098 1012 1639 745 1079 1777 1612 1268 1346 1119 924 399 29 879 914 1219 1161 1384 1598 1062 1002 828
770 717 888 1250 692 1101 1289 810 1436 1330 1193 1326 1365 1361 1393 1559 1036 1484 1530 1238 1589 1916 1447 620 1228 1526 1366 1503 1353 1172 1366 1124 759 757 789 631 998 1354 1504 1800 1694 1022 1415
580 709 1247 1226 1011 1346 1504 583 879 1024 586 794 1356 1458 1062 1638 1080 1309 1424 1526 1494 1469 1464 1041 1086 1464 1167 1521 1188 1598 1057 1210 1357 1139 1377 284 731 893 1434 1717 2063 1819 1253
609 532 895 1077 1235 1347 1428 1554 1472 1032 886 628 809 1626 1066 1254 1375 1417 1809 1461 1117 1028 1461 1646 1553 1039 1620 1333 1506 1494 771 1010 992 880 1444 1299 1009 666 903 1334 1595 1901 1816
689 574 946 1012 1414 1106 1347 1631 1699 1285 625 988 572 1402 1554 1757 1862 1689 1497 1693 1580 1194 1384 1603 1491 1194 1257 1204 660 1350 842 810 834 62 108 109 1339 1128 926 760 794 1343 1446
770 917 1106 855 1495 1613 1883 1916 1284 1020 1234 636 941 1177 1199 1693 2007 1876 1858 1661 1667 1523 1113 1122 1232 822 715 13 0 0 0 0 0 0 0 112 191 617 1013 722 736 645 969
704 1121 914 1158 1190 1720 1625 1817 1736 1635 1354 1626 820 1417 1358 1581 1890 1758 1528 1425 1582 1220 1314 1363 786 645 15 0 0 0 1 0 1 9 71 172 296 278 734 1158 712 705 901
581 912 1115 1139 1245 1765 1708 1865 1948 1331 1549 1784 2010 1392 1447 1881 1612 1566 1557 1457 1588 1420 1049 860 590 165 0 0 0 0 0 0 15 164 42 276 196 343 799 1080 896 1109 631
681 1040 1101 1296 1242 2243 2106 1748 1328 1569 1351 1522 1082 2027 1819 1652 1812 1491 1525 1346 1308 1178 711 684 236 0 0 4 0 0 32 7 5 73 26 7 28 206 327 882 980 886 816
682 951 1471 1374 1980 1549 1658 1413 1176 1322 1584 1741 1679 1679 1438 1885 1747 1416 1497 1496 1092 977 772 484 57 2 0 6 0 0 12 33 11 22 11 0 0 3 315 376 274 496 869
817 1158 1340 1543 2049 1570 1868 1216 1578 1902 2004 1756 1903 1500 2132 1905 1678 1897 1650 1311 1405 1045 1118 318 35 0 0 1 0 0 35 59 47 61 23 0 0 0 1 0 0 0 133
833 1399 1576 1774 1850 2229 1486 2201 1634 1241 1739 842 430 634 1218 1560 1009 1330 1272 1563 1179 926 412 34 59 0 0 0 0 0 0 0 40 36 37 8 0 0 0 0 0 0 0
858 1340 1893 2052 2148 2455 1683 2233 2114 1543 685 1328 803 1136 940 989 654 1808 1282 961 1175 763 106 0 21 0 0 0 0 5 1 0 0 0 3 19 25 0 0 0 0 0 0
797 1261 1706 2304 2350 2542 2679 1885 2163 1876 1254 1130 1005 1620 1199 1192 865 1129 731 1109 948 601 274 30 29 16 0 0 0 0 0 4 11 12 0 4 7 16 5 0 0 0 0

GFSSE_con_mlcape_033.txt.gz
CAPE
13 29 63 118 179 575 805 1104 1055 1265 1449 1588 1679 1681 1476 1449 1214 1581 1627 1417 1455 1569 1582 1537 1506 1419 1430 1466 1472 1635 1621 1206 1022 899 960 542 141 312 475 686 1297 1332 994
0 72 93 243 511 666 924 1074 1124 1436 1323 1522 1715 1701 1547 1496 1484 1592 1452 1421 1426 1566 1561 1480 1443 1366 1380 1328 1282 1267 1522 1433 1290 1070 873 407 150 959 1180 1010 1243 1234 643
1 63 238 381 562 634 746 894 1182 1344 1367 1564 1660 1587 1615 1594 1653 1694 1553 1658 1602 1521 1507 1513 1509 1399 1365 1250 1153 1007 1002 1274 1233 760 1204 141 506 894 926 1371 1338 1070 516
80 223 267 505 654 601 563 828 1102 1115 1329 1629 1697 1528 1591 1533 1685 1691 1667 1620 1472 1426 1413 1407 1392 1441 1353 1255 1147 888 850 901 958 867 993 298 389 1127 1311 1273 1407 891 710
206 231 580 671 944 851 722 843 941 1106 1276 1404 1635 1629 1615 1450 1603 1646 1584 1439 1394 1388 1376 1387 1328 1221 1189 1132 1090 1009 865 899 799 1209 1024 501 682 1055 966 1093 1298 1310 999
125 296 811 914 1139 1266 1134 1015 1055 1108 1236 1412 1587 1615 1532 1351 1575 1448 1400 1330 1368 1534 1541 1617 1472 1365 1233 1098 1034 848 911 1082 900 570 91 517 587 954 636 1141 1200 1146 1106
112 552 858 1022 1195 1476 1325 1217 1383 1221 1116 1473 1485 1613 1512 1414 1532 1288 1207 1210 1471 1637 1778 1623 1334 1082 1190 1147 1076 997 1098 1086 993 966 205 316 718 1380 1357 1307 1071 1126 1115
100 387 785 1258 1224 1405 1501 1552 1579 1291 1190 1456 1464 1462 1465 1286 1234 1012 966 1153 1394 1589 1542 1500 1014 832 875 931 977 980 924 851 291 370 198 305 918 362 931 831 1297 1262 1267
340 426 892 1354 1530 1444 1652 1685 1596 1271 1291 1417 1341 1273 1335 1155 1171 917 861 1054 976 1118 1230 1145 1085 950 980 1081 1065 847 1018 807 0 0 271 230 1041 281 224 866 1092 670 1211
628 721 765 1205 1481 1438 1554 1423 1331 1399 1400 1197 1045 971 1110 1105 1051 1165 1003 1123 822 806 1063 1360 1234 1066 857 891 1069 986 960 63 141 0 48 401 963 1226 976 635 1099 909 1115
751 740 958 1133 1266 953 919 1234 1445 1402 1205 842 715 812 469 817 835 848 1286 1156 746 706 1059 998 1075 1040 827 675 1296 1370 1184 449 100 147 599 575 692 843 1138 1258 1043 1045 1195
702 914 834 781 628 709 795 932 727 710 634 282 424 516 588 785 898 977 1046 877 869 1278 716 1313 1096 1019 1141 845 851 1000 979 595 6 3 489 460 673 1474 999 960 1125 756 997
507 800 1077 1158 914 564 537 262 691 676 287 469 906 1069 1107 1158 1377 1087 605 278 964 891 1135 1325 1064 786 1376 1175 1210 1323 456 107 0 46 440 443 926 1784 1768 1018 827 1022 615
631 495 586 432 972 508 673 357 936 957 845 824 924 1253 1601 1412 1067 1068 1073 781 1059 1255 1052 458 1132 1117 1563 1618 1304 1492 686 426 110 567 481 821 1071 1352 2065 1618 966 994 851
566 725 608 419 645 737 871 378 1027 1074 1093 1051 1233 1395 620 932 850 1364 1286 1431 1120 1300 1213 732 819 1156 1477 1339 1152 1134 706 744 399 310 578 658 904 784 1385 2102 1940 1275 1311
797 708 884 651 654 893 1128 1105 1656 1210 897 1166 1258 981 859 1249 914 1232 1526 1571 1179 885 1164 1257 1143 1133 1311 964 939 1320 771 608 932 959 924 988 799 621 552 975 1638 2036 1542
211 397 986 796 974 1210 1006 1281 1107 1075 761 777 855 1242 793 1079 1091 872 992 941 1300 1103 1168 970 956 1116 753 347 2 1073 821 543 748 908 801 909 989 866 659 749 780 1313 2089
221 961 1032 896 587 419 587 1164 943 808 774 826 913 1054 1179 1513 1443 1334 1051 1119 1722 1132 900 785 859 415 49 0 0 0 206 0 0 8 2 9 308 933 990 625 471 556 955
352 692 654 912 773 711 475 1226 1137 534 935 1158 994 1253 1151 1448 1570 1412 1373 1199 1348 1298 1236 976 625 115 0 0 0 0 0 0 0 14 25 79 297 568 1053 827 569 474 609
443 684 788 796 1129 1064 1216 1192 1183 1002 1357 1602 1117 906 1232 1275 1460 1157 1401 1457 1142 1237 806 655 437 70 0 0 0 0 0 0 0 44 91 78 377 551 763 1060 823 879 704
635 764 619 845 1400 1314 1331 1157 1281 1476 1049 1081 1340 1551 1334 1303 1386 1321 1276 1245 1248 1208 646 468 24 0 0 0 0 0 0 0 0 33 19 14 30 412 716 703 658 1095 867
491 764 677 773 1294 1436 1315 1251 1192 1174 1114 728 815 1446 1526 1333 1084 1045 946 960 1012 814 539 117 0 0 0 0 0 0 0 1 14 17 5 0 0 163 126 34 238 557 754
423 698 810 860 1143 1483 1605 1422 1122 985 875 1117 1395 1412 1458 1309 1288 1627 1151 926 891 842 501 67 0 0 0 0 0 0 0 8 30 26 2 0 0 0 0 0 0 41 708
491 742 853 968 1156 1414 1567 1295 908 808 1547 1476 1529 1495 1525 1365 1468 1369 1337 886 1066 517 492 1 0 0 0 0 0 0 0 0 11 25 2 0 0 0 0 0 0 0 7
502 720 1039 996 1313 1231 1261 1292 817 785 1097 1284 990 1063 1351 1516 1204 1126 1203 1209 870 607 150 0 0 0 16 17 1 42 0 0 0 0 7 13 9 0 0 0 0 0 0
599 890 1151 1066 1153 1391 1126 1081 1693 1468 985 514 614 942 1187 944 850 1051 981 987 761 194 8 10 17 0 16 22 9 0 0 0 0 0 0 0 0 1 3 0 0 0 0